SB KEPS @ AMSAT $ORB25186.1 2Line Orbital Elements 25186.AMSAT QST de W1STR AMSAT Orbital Elements for Amateur Satellites in TLE Format From Orbital Analysis Office New England Sci-Tech STEM Education Center Natick, MA July 05, 2025 To all radio amateurs These element sets describe the orbits of various satellites in use by the amateur radio community. For details see: www.amsat.org/keplerian-elements-formats/ A daily update of element sets is available at: www.amsat.org/tle/daily-bulletin.txt or without bulletin text: www.amsat.org/tle/dailytle.txt AO-07 1 07530U 74089B 25185.63430821 -.00000040 00000-0 39154-4 0 9992 2 07530 101.9929 190.1650 0012630 74.9976 38.8039 12.53689916316960 UO-11 1 14781U 84021B 25185.45828466 .00001076 00000-0 11888-3 0 9993 2 14781 97.7555 151.3373 0006323 251.3455 108.7076 14.89445055205341 AO-27 1 22825U 93061C 25185.67251229 .00000069 00000-0 43444-4 0 9991 2 22825 98.7355 247.3518 0009124 45.6093 314.5835 14.30806334657572 FO-29 1 24278U 96046B 25185.59392607 -.00000048 00000-0 -94472-5 0 9995 2 24278 98.5728 76.1925 0348845 277.8321 78.3358 13.53250118426157 NOAA-15 1 25338U 98030A 25185.84348114 .00000173 00000-0 88642-4 0 9998 2 25338 98.5339 210.3653 0009020 287.4417 72.5778 14.26991848412009 GO-32 1 25397U 98043D 25185.55982956 .00000053 00000-0 42926-4 0 9995 2 25397 98.9712 165.2019 0002174 115.5040 244.6363 14.24320182401840 ISS 1 25544U 98067A 25185.79714807 .00005496 00000-0 10287-3 0 9999 2 25544 51.6344 219.7923 0002451 333.2220 26.8642 15.50372911517897 NO-44 1 26931U 01043C 25185.86378573 .00000091 00000-0 65268-4 0 9998 2 26931 67.0512 62.4685 0006191 276.8757 83.1640 14.31744751240885 SO-50 1 27607U 02058C 25185.12112093 .00001118 00000-0 15611-3 0 9995 2 27607 64.5525 124.7787 0059080 328.6551 31.1037 14.81683787212866 CO-55 1 27844U 03031E 25185.55335301 .00000252 00000-0 12888-3 0 9997 2 27844 98.6754 193.5042 0010816 112.3837 247.8488 14.24012279142191 CO-57 1 27848U 03031J 25185.58374133 .00000219 00000-0 11559-3 0 9997 2 27848 98.6781 193.5209 0010505 127.8736 232.3394 14.23344769141920 RS-22 1 27939U 03042A 25185.82341419 .00000784 00000-0 13204-3 0 9994 2 27939 98.3299 355.8874 0010201 292.5702 174.3253 14.72400948164547 CO-58 1 28895U 05043F 25185.34528300 .00001225 00000-0 20749-3 0 9995 2 28895 98.2528 330.0096 0013628 224.6916 135.3192 14.71078210 50582 CO-65 1 32785U 08021C 25185.54553043 .00004526 00000-0 32635-3 0 9995 2 32785 97.7845 156.8977 0010942 123.8346 236.3923 15.04613830932837 CO-66 1 32791U 08021J 25185.73668728 .00010050 00000-0 48064-3 0 9992 2 32791 97.7282 166.3478 0005808 87.1875 273.0024 15.19186299934398 RS-30 1 32953U 08025A 25185.83335248 .00000021 00000-0 78698-4 0 9999 2 32953 82.5010 211.4734 0018991 354.7542 5.3336 12.43165854776672 NOAA-19 1 33591U 09005A 25185.83037032 .00000147 00000-0 10262-3 0 9998 2 33591 98.9963 250.6755 0012694 294.1095 65.8749 14.13385113845678 SRMSAT 1 37841U 11058D 25185.62451817 .00000374 00000-0 59449-4 0 9992 2 37841 19.9737 2.9936 0011789 340.7302 87.3694 14.11442221708650 ZACUBE-1 1 39417U 13066B 25185.85638701 .00003200 00000-0 27920-3 0 9997 2 39417 97.7804 142.7401 0043290 329.6673 30.2044 14.96855039628698 Delfi-N3xt 1 39428U 13066N 25185.36589129 .00004754 00000-0 48437-3 0 9995 2 39428 97.8331 102.7434 0082656 279.2493 79.9382 14.88656012622765 GOMX-1 1 39430U 13066Q 25185.84778303 .00001624 00000-0 25681-3 0 9994 2 39430 97.6815 42.9588 0133721 111.3118 250.2424 14.67720270619119 LO-74 1 39440U 13066AA 25185.39089544 .00003435 00000-0 34824-3 0 9998 2 39440 97.8497 129.7817 0063526 97.9715 262.8718 14.90064192625138 AO-73 1 39444U 13066AE 25185.45455902 .00006081 00000-0 45312-3 0 9998 2 39444 97.7798 147.4677 0041138 303.4877 56.2419 15.02606073627325 DTUSAT-2 1 40030U 14033W 25185.43274307 .00005017 00000-0 32571-3 0 9993 2 40030 98.0557 158.4591 0008469 347.6092 12.4926 15.08526023600141 EO-80 1 40032U 14033Y 25185.45165800 .00005401 00000-0 34953-3 0 9997 2 40032 98.0444 158.0993 0006646 278.4782 81.5691 15.08609746600120 LILACSAT-2 1 40908U 15049K 25185.83440453 .00009891 00000-0 25452-3 0 9990 2 40908 97.5053 206.7966 0010863 75.2143 285.0305 15.39397133542118 IO-86 1 40931U 15052B 25151.18580175 .00001241 00000-0 78118-4 0 9996 2 40931 6.0006 24.0987 0012733 338.8432 21.1169 14.78805930523047 Horyu-4 1 41340U 16012D 25185.53820542 .00019427 00000-0 50309-3 0 9995 2 41340 30.9979 323.9788 0006395 326.7575 33.2669 15.37781170516639 Lapan A3 1 41603U 16040E 25185.81221362 .00002698 00000-0 95249-4 0 9999 2 41603 97.1370 189.4315 0011230 169.6513 190.4961 15.30000683501644 CAS-2T 1 41847U 16066G 25185.22046935 .00001476 00000-0 21633-3 0 9991 2 41847 98.4195 259.4668 0347077 103.9560 260.0480 14.43557977454571 CAS-4B 1 42759U 17034B 25185.67922796 .00061446 00000-0 57132-3 0 9993 2 42759 43.0043 171.9430 0019078 106.7685 253.5275 15.66311146446531 CAS-4A 1 42761U 17034D 25185.81790914 .00064843 00000-0 56619-3 0 9990 2 42761 43.0081 167.9721 0020146 112.9738 247.3257 15.67807483446581 TechnoSat 1 42829U 17042E 25185.43033694 .00002405 00000-0 18838-3 0 9994 2 42829 97.3850 352.9493 0016265 189.8312 170.2598 15.01806738434457 AO-91 1 43017U 17073E 25185.59438006 .00008934 00000-0 45193-3 0 9998 2 43017 97.5218 55.7323 0172971 81.5036 280.5751 15.05069530412979 S-Net D 1 43186U 18014G 25185.64823930 .00003544 00000-0 20989-3 0 9999 2 43186 97.5604 88.2996 0010357 131.4628 228.7493 15.12015432406164 S-Net B 1 43187U 18014H 25185.58779001 .00003731 00000-0 22086-3 0 9990 2 43187 97.5611 88.2128 0011156 128.0398 232.1841 15.11995070406153 S-Net A 1 43188U 18014J 25185.31765060 .00003565 00000-0 21107-3 0 9990 2 43188 97.5618 88.0987 0011009 129.3796 230.8411 15.12017738406116 S-Net C 1 43189U 18014K 25185.65643929 .00003795 00000-0 22448-3 0 9991 2 43189 97.5635 88.4526 0012672 122.7225 237.5229 15.11991266404711 Ten-Koh 1 43677U 18084G 25185.46754144 .00001807 00000-0 14788-3 0 9991 2 43677 98.0853 358.7085 0007732 167.9938 192.1470 15.00664407363975 PO-101 1 43678U 18084H 25185.76469495 .00001933 00000-0 16729-3 0 9994 2 43678 98.1036 2.8506 0008374 192.3625 167.7392 14.98414610364150 QO-100 1 43700U 18090A 25185.57050476 .00000158 00000-0 00000-0 0 9991 2 43700 0.0128 61.5233 0002400 74.6615 17.7910 1.00272791 24192 MinXSS-2 1 43758U 18099A 25185.18152874 .00014183 00000-0 54692-3 0 9997 2 43758 97.5011 251.3050 0012913 74.3210 285.9452 15.26348859360725 AO-95 1 43770U 18099N 25185.11377632 .00007918 00000-0 39659-3 0 9999 2 43770 97.4901 242.9315 0012092 124.1631 236.0751 15.17584754360270 RANGE-A 1 43773U 18099R 25185.59681049 .00003957 00000-0 25185-3 0 9992 2 43773 97.4473 233.2736 0013050 105.0131 255.2543 15.09275769359998 MOVE-II 1 43780U 18099Y 25185.15718627 .00796684 27939-3 19989-2 0 9998 2 43780 97.4637 262.9999 0008895 242.6350 117.4021 15.95651018361690 SNUSat 2 1 43782U 18099AA 25185.64271714 .00006402 00000-0 34648-3 0 9994 2 43782 97.4584 240.0012 0013375 71.2384 289.0298 15.14912204360293 SnugLite 1 43784U 18099AC 25185.60003624 .00007500 00000-0 37265-3 0 9993 2 43784 97.4399 239.5708 0005034 79.8407 280.3394 15.17934395360432 ITASat 1 1 43786U 18099AE 25185.67640919 .00005397 00000-0 30686-3 0 9998 2 43786 97.4554 239.4697 0015899 117.6842 242.6005 15.13186695360255 EAGLET 1 1 43790U 18099AJ 25185.61363267 .00003623 00000-0 23124-3 0 9994 2 43790 97.4755 239.2818 0013763 102.9610 257.3157 15.09226784359847 ESEO 1 43792U 18099AL 25185.57301660 .00000680 00000-0 55173-4 0 9990 2 43792 97.4456 232.1732 0014811 78.4345 281.8543 15.02688216359577 CSIM 1 43793U 18099AM 25185.81341270 .00348315 00000-0 16379-2 0 9992 2 43793 97.4757 265.7720 0002788 140.2068 219.9405 15.82226958361628 JO-97 1 43803U 18099AX 25185.58281758 .00010062 00000-0 45237-3 0 9993 2 43803 97.4650 244.4411 0008632 65.8356 294.3781 15.21290718360574 Suomi 100 1 43804U 18099AY 25185.11097784 .00008340 00000-0 40346-3 0 9999 2 43804 97.4714 243.1989 0013557 67.3527 292.9139 15.18765464360427 ISAT 1 43879U 18111D 25185.73485208 .00016499 00000-0 55768-3 0 9994 2 43879 97.5938 100.6953 0010772 106.5997 253.6427 15.30668507355522 UWE-4 1 43880U 18111E 25185.65147797 .00012891 00000-0 49546-3 0 9994 2 43880 97.5880 98.9107 0013669 118.4876 241.7740 15.26473450355450 Sparrow 1 43881U 18111F 25185.69614178 .00017588 00000-0 57145-3 0 9993 2 43881 97.6086 103.6323 0008338 137.0945 223.0948 15.31952997355632 Prox-1 1 44339U 19036A 25185.49412954 .00007875 00000-0 97513-3 0 9996 2 44339 23.9969 258.0914 0007326 3.3562 356.6984 14.80357133321719 SONATE 1 44400U 19038Q 25185.04804581 .04763960 26969-5 62783-3 0 9995 2 44400 97.6638 215.9601 0011195 235.7841 124.2395 16.35453268333507 Taurus 1 1 44530U 19059C 25185.84398373 .00004045 00000-0 74603-3 0 9992 2 44530 98.6090 326.4433 0008009 321.3068 38.7560 14.66075037307643 Duchifat 3 1 44854U 19089C 25185.39988900 .00039179 00000-0 71815-3 0 9993 2 44854 36.9410 197.1608 0004711 182.0944 177.9794 15.48339940306866 TO-108 1 44881U 19093C 25185.81737804 .00000698 00000-0 86614-4 0 9998 2 44881 97.7919 260.9395 0014667 144.1056 216.1148 14.85642190299821 FloripaSat 1 1 44885U 19093G 25185.78741705 .00004943 00000-0 41558-3 0 9997 2 44885 97.8157 273.4410 0012567 119.3477 240.9002 14.98684337300522 RS-44 1 44909U 19096E 25185.57160553 .00000015 00000-0 19158-4 0 9998 2 44909 82.5196 210.6739 0216437 236.9831 121.0310 12.79741568257880 UPMSat 2 1 46276U 20061E 25185.15707831 .00073825 00000-0 56811-3 0 9996 2 46276 97.2420 260.4190 0002212 150.0468 210.0922 15.71787086269322 SALSAT 1 46495U 20068K 25185.51873113 .00005759 00000-0 24751-3 0 9992 2 46495 97.8611 164.7052 0013060 78.5362 281.7339 15.23018510262322 CubeSX-Sirius-HSE 1 47951U 21022V 25157.62701764 .07883385 25648-5 89537-3 0 9993 2 47951 97.4004 72.1904 0010275 223.9924 136.0557 16.36879307233400 CubeSX-HSE 1 47952U 21022W 25157.69972699 .06655353 25454-5 93288-3 0 9992 2 47952 97.3980 72.5414 0010307 219.3637 140.6911 16.34906352233436 GRBAlpha 1 47959U 21022AD 25160.45426279 .07940347 25506-5 90589-3 0 9995 2 47959 97.3899 75.6235 0011032 227.2558 132.7812 16.36806138232695 TUBIN 1 48900U 21059X 25185.78000426 .00037309 00000-0 42111-3 0 9990 2 48900 97.6760 357.0941 0004247 138.1241 222.0341 15.62408533223978 LEDSAT 1 49069U 21073D 25185.79856691 .00061763 00000-0 65626-3 0 9994 2 49069 97.3877 268.4474 0006936 341.0989 19.0011 15.63834290215375 CUTE 1 49263U 21088D 25185.19090583 .00015945 00000-0 30884-3 0 9999 2 49263 97.4499 262.1725 0009312 145.9890 214.1958 15.47753374208235 TeikyoSat 4 1 49396U 21102B 25185.63849678 .00001779 00000-0 12023-3 0 9994 2 49396 97.4089 223.1615 0013759 52.8539 307.3944 15.07729143200323 Z-Sat 1 49399U 21102E 25185.85753267 .00003853 00000-0 21144-3 0 9998 2 49399 97.3788 226.6256 0018434 22.0371 338.1650 15.14585972200805 KOSEN 1 1 49402U 21102H 25185.67956151 .00005675 00000-0 26150-3 0 9996 2 49402 97.3692 230.0590 0015347 357.8559 2.2608 15.20565882201102 HO-113 1 50466U 21131B 25185.83041922 .00000425 00000-0 14652-3 0 9991 2 50466 98.5107 275.0602 0005262 69.3075 290.8677 14.40838630185088 Foresail-1 1 52766U 22057AL 25176.64799660 .13857605 27391-5 25307-3 0 9992 2 52766 97.5832 331.2310 0012137 233.7199 258.4922 16.46795272172486 SNUGLITE 2 1 52899U 22065F 25185.38126570 .00000827 00000-0 16959-3 0 9991 2 52899 98.1717 327.1174 0008385 43.8202 316.3664 14.63259690160119 UmKA 1 (RS40S) 1 57172U 23091G 25185.82945139 .00004714 00000-0 25151-3 0 9992 2 57172 97.5568 241.0816 0012915 243.7021 116.2885 15.15576173111301 CubeBel-2 (EU11S) 1 57175U 23091K 25185.85781220 .00007077 00000-0 33423-3 0 9993 2 57175 97.5567 242.4124 0010597 250.2359 109.7733 15.19698352111397 VERONIKA 1 58261U 23174F 25185.82356681 .00178571 00000-0 10384-2 0 9996 2 58261 97.4088 273.6531 0004870 255.3787 104.6939 15.77966864 92656 ENSO 1 58470U 23185J 25185.82910908 .00046464 00000-0 61264-3 0 9997 2 58470 97.3723 261.8013 0004864 352.3726 7.7455 15.58270573 88960 EIRSAT-1 1 58472U 23185L 25185.82049289 .00120811 00000-0 89027-3 0 9990 2 58472 97.3661 264.1800 0002317 316.1417 43.9662 15.72668477 89120 SONATE-2 1 59112U 24043Q 25184.85772238 .00013163 00000-0 37202-3 0 9994 2 59112 97.5159 316.5378 0011211 34.7054 325.4919 15.36412360 74069 MO-122 1 60209U 24125G 25185.58269524 .00015884 00000-0 44020-3 0 9992 2 60209 97.2776 36.9302 0019543 51.9513 308.3491 15.36840170 55795 GRBBeta 1 60237U 24128C 25185.62226218 .00003410 00000-0 26132-3 0 9990 2 60237 61.9927 352.2309 0053724 63.0891 297.5675 15.02815436 53965 Curium One 1 60242U 24128H 25185.68287399 .00005945 00000-0 41372-3 0 9997 2 60242 61.9825 349.9363 0053664 59.3205 301.3160 15.05422262 54015 ROBUSTA-3A 1 60243U 24128J 25185.62695193 .00005927 00000-0 41829-3 0 9994 2 60243 61.9897 351.0448 0052612 57.0241 303.5892 15.04947070 53990 CatSat 1 60246U 24125J 25185.53471947 .00008746 00000-0 28859-3 0 9993 2 60246 97.2577 35.8101 0042094 7.7831 352.4054 15.30784600 53803 HYPERVIEW-1G (RS66S) 1 61772U 24199AP 25185.82393246 .00017737 00000-0 50070-3 0 9996 2 61772 97.3509 54.6397 0015338 102.0838 258.2126 15.36318127 80836 AO-123 1 61781U 24199AY 25185.84978448 .00005560 00000-0 20149-3 0 9996 2 61781 97.3524 53.2755 0017521 106.8514 253.4649 15.28631411 80747 ZIMSAT 2 1 61783U 24199BA 25185.85075286 .00032594 00000-0 75707-3 0 9994 2 61783 97.3483 55.4824 0015047 99.4286 260.8663 15.42173928 84043 HADES-R (SO-124) 1 62690U 25009CK 25185.20292489 .00032888 00000-0 11124-2 0 9996 2 62690 97.4088 265.9361 0002138 41.0608 319.0794 15.30549990 25911 HYDRA-T 1 62692U 25009CM 25185.18402150 .00034950 00000-0 11712-2 0 9998 2 62692 97.4087 265.9605 0001751 37.1219 323.0143 15.30838613 25913 JINJUSat 1B 1 63210U 25052A 25185.66282853 .00009542 00000-0 43212-3 0 9992 2 63210 97.4393 79.4725 0002926 209.9388 150.1681 15.21083687 17068 NUSHSAT 1 1 63211U 25052B 25185.65360751 .00010743 00000-0 48214-3 0 9998 2 63211 97.4384 79.4707 0002766 218.1221 141.9819 15.21359268 17061 TEVEL2-4 1 63213U 25052D 25185.14596184 .00009618 00000-0 43621-3 0 9991 2 63213 97.4299 78.8076 0001480 243.8923 116.2160 15.21033681 16988 TEVEL2-5 1 63214U 25052E 25185.67317679 .00009589 00000-0 43505-3 0 9998 2 63214 97.4303 79.3263 0001533 240.3526 119.7557 15.21021093 17061 TEVEL2-6 1 63215U 25052F 25185.67597755 .00009504 00000-0 43174-3 0 9993 2 63215 97.4300 79.3237 0001548 243.4197 116.6880 15.20980890 17067 TEVEL2-1 1 63217U 25052H 25185.69067075 .00009420 00000-0 43071-3 0 9997 2 63217 97.4275 79.2685 0001600 275.3841 84.7212 15.20758989 17061 TEVEL2-2 1 63218U 25052J 25185.62515857 .00009375 00000-0 42865-3 0 9996 2 63218 97.4277 79.2046 0001669 277.5599 82.5447 15.20759023 17059 TEVEL2-3 1 63219U 25052K 25185.69117341 .00009385 00000-0 42916-3 0 9998 2 63219 97.4276 79.2685 0001638 276.9607 83.1442 15.20754012 17063 TEVEL2-8 1 63237U 25052AD 25184.65710791 .00009223 00000-0 43707-3 0 9991 2 63237 97.4338 78.1452 0006271 297.3574 62.7022 15.19514858 16897 TEVEL2-9 1 63238U 25052AE 25185.64825293 .00009553 00000-0 45314-3 0 9998 2 63238 97.4340 79.1160 0006283 292.8080 67.2491 15.19468701 17046 TEVEL2-7 1 63239U 25052AF 25185.18977258 .00009947 00000-0 47226-3 0 9998 2 63239 97.4339 78.6574 0006340 295.4073 64.6505 15.19427545 16972 HYDRA-W 1 63490U 25052BL 25185.69660015 .00022473 00000-0 91979-3 0 9996 2 63490 97.4293 79.5863 0009172 286.1903 73.8324 15.24291137 17082 HADES-ICM (SO-125) 1 63492U 25052BN 25184.66837111 .00020352 00000-0 84675-3 0 9996 2 63492 97.4291 78.5224 0009701 295.1427 64.8804 15.23754304 16925 /EX